Home > Time Zones > World Clock > Weather > Qatar > Doha > Past weeks

Flag for Qatar Weather past 2 weeks in Doha, Qatar

Now
84 °F

Passing clouds.


Feels Like: 83 °F
Forecast: 73 / 85 °F
Wind: 6 mph from Northeast

Location: Doha International Airport

Current Time: Apr 1, 2015 at 11:31:18 AM

Latest Report: Apr 1, 2015 at 10:00 AM


Visibility: N/A

Pressure: 29.77 "Hg

Humidity: 37%

Dew point: 55 °F

Location of DohaLocation

Historic Weather in Doha — Graph

°F

Doha temperature yesterday

Maximum temperature yesterday: 97 °F (at 1:00 PM)
Minimum temperature yesterday: 77 °F (at 1:00 AM)
Average temperature yesterday: 84 °F

Past Weeks' High & Low Weather Summary

 TemperatureHumidityPressure
High97 °F (Mar 31, 1:00 PM)94% (Mar 22, 11:00 PM)30.12 "Hg (Mar 22, 11:00 PM)
Low64 °F (Mar 24, 1:00 AM)16% (Mar 29, 12:00 PM)29.71 "Hg (Mar 31, 3:00 AM)
Average76 °F64%29.95 "Hg
* Reported Mar 17 10:00 AM — Apr 1 10:00 AM, Doha, Weather by CustomWeather, © 2015

Note: Actual official high and low records may vary slightly from our data, if they occured in-between our weather recording intervals... More about our weather records

Advertising

Doha weather history for previous 24 hours

 ConditionsComfort  
Time TempWeatherWind HumidityBarometerVisibility
10:00 AM
Wed, Apr 1
84 °FPassing clouds.6 mph37%29.77 "HgN/A
9:00 AM82 °FPassing clouds.5 mph45%29.80 "HgN/A
8:00 AM79 °FSunny.8 mph58%29.80 "Hg10 mi
7:00 AM77 °FSunny.10 mph57%29.77 "Hg10 mi
6:30 AM75 °FSunny.8 mph65%29.77 "Hg10 mi
5:30 AM73 °FSunny.8 mph65%29.77 "Hg10 mi
5:00 AM73 °FClear.10 mph65%29.77 "Hg10 mi
4:00 AM73 °FClear.9 mph65%29.77 "Hg10 mi
3:00 AM73 °FClear.13 mph61%29.77 "Hg10 mi
2:00 AM75 °FClear.15 mph54%29.80 "Hg10 mi
1:00 AM75 °FPassing clouds.10 mph54%29.80 "HgN/A
12:00 AM77 °FPassing clouds.9 mph47%29.83 "HgN/A
11:00 PM
Tue, Mar 31
77 °FPassing clouds.9 mph51%29.86 "HgN/A
10:00 PM77 °FPassing clouds.14 mph57%29.83 "HgN/A
9:30 PM77 °FPassing clouds.9 mph61%29.86 "HgN/A
9:00 PM79 °FPassing clouds.9 mph54%29.86 "HgN/A
8:00 PM81 °FPassing clouds.13 mph42%29.83 "HgN/A
7:00 PM81 °FPassing clouds.10 mph42%29.80 "HgN/A
6:00 PM82 °FClear.12 mph45%29.80 "Hg6 mi
5:00 PM86 °FClear.10 mph43%29.77 "Hg6 mi
4:00 PM90 °FClear.13 mph41%29.77 "Hg5 mi
3:00 PM93 °FClear.12 mph34%29.77 "Hg5 mi
2:00 PM97 °FClear.8 mph27%29.77 "Hg4 mi
1:00 PM97 °FClear.7 mph28%29.80 "Hg5 mi
12:30 PM95 °FClear.6 mph28%29.80 "Hg5 mi
12:00 PM95 °FClear.8 mph28%29.83 "Hg5 mi
11:00 AM93 °FClear.7 mph28%29.83 "Hg4 mi
Weather by CustomWeather, © 2015

See weather overviewHow to use our weather pages